Wind_Speed
18 16 16 16 14 13 12 13 12 11 11 10 9 9 8 9 9 12 13 13 13 14 15 16 16 16 17 16 18 18 18 18 20 21 21 18 17 16 16 15 20 19 19
23 18 18 15 14 12 12 12 12 12 12 11 10 11 11 10 11 11 12 13 14 14 14 15 15 15 16 17 17 17 16 18 20 21 21 19 18 18 20 18 19 18 19
24 21 18 15 15 13 12 14 12 11 11 11 12 11 12 12 12 12 11 13 13 13 14 14 14 16 16 16 16 15 16 16 14 17 21 17 16 17 18 19 18 18 18
24 22 18 16 15 14 12 13 12 12 12 12 12 11 13 13 13 14 13 12 13 13 14 14 14 15 16 16 15 15 16 14 10 7 13 17 16 16 17 16 17 17 17
24 23 19 17 15 14 12 12 13 12 12 12 13 13 13 13 14 13 13 13 13 13 13 13 14 16 15 16 15 18 20 19 17 17 17 17 15 13 14 16 16 16 18
24 21 18 17 14 12 12 12 12 12 12 12 12 13 12 12 13 14 14 13 13 13 13 13 15 15 16 14 15 18 13 10 14 14 16 16 14 14 17 15 16 15 15
26 20 16 16 14 12 12 11 12 12 13 13 12 12 12 12 11 13 13 15 14 14 13 13 13 13 15 15 17 18 14 14 21 16 17 14 14 15 15 15 15 15 15
21 22 16 15 13 11 11 11 12 12 13 13 13 13 12 12 12 13 13 15 14 14 15 16 18 16 14 14 16 15 10 11 17 17 15 13 14 14 14 13 14 14 15
25 19 16 14 11 11 11 12 12 13 12 13 13 13 13 12 13 14 15 15 16 17 18 17 17 15 14 14 15 15 15 16 16 17 14 13 14 13 13 13 13 13 12
22 16 18 14 12 12 10 11 12 12 13 12 12 13 18 19 16 15 17 17 17 18 18 17 16 16 15 16 19 19 17 15 15 17 14 12 13 12 12 12 12 12 11
12 16 13 16 13 14 12 11 10 12 13 14 12 11 12 15 15 14 17 16 16 16 16 16 16 16 20 18 12 9 6 4 13 18 11 12 11 11 11 11 12 11 11
17 14 13 15 14 13 14 12 10 12 11 10 10 6 7 17 16 15 13 14 16 16 16 16 14 10 13 13 9 5 8 9 12 12 10 11 9 9 9 9 9 8 9
17 16 18 12 13 15 12 12 10 12 10 9 7 7 11 12 15 13 13 12 9 10 9 9 5 7 5 7 10 10 9 9 15 11 10 9 8 7 8 7 7 7 6
16 13 14 13 14 12 11 10 9 13 12 12 11 10 10 11 9 8 14 11 7 10 7 9 12 11 8 10 11 8 7 9 12 11 8 6 7 6 6 5 5 5 5
16 14 15 13 10 8 8 11 11 12 18 10 12 5 8 12 9 9 5 9 9 9 7 9 10 10 10 10 9 9 9 8 7 12 8 5 4 5 5 4 4 4 5
17 14 15 13 10 9 8 7 9 4 11 13 11 8 7 9 8 9 7 8 7 9 8 10 6 9 8 10 9 8 7 8 6 5 11 9 6 4 4 3 3 3 2
17 15 16 14 14 11 11 11 7 10 10 15 10 8 6 7 4 6 6 8 7 8 7 7 7 6 12 9 9 7 8 8 8 3 5 9 6 9 7 4 4 3 2
18 17 16 15 15 13 12 11 8 7 4 8 10 9 5 4 6 3 6 5 7 7 8 5 5 2 11 10 6 5 8 9 7 5 5 3 6 7 8 9 5 4 4
17 18 17 14 15 14 12 10 9 8 7 5 4 10 7 5 5 4 6 5 4 3 4 8 5 6 7 11 13 6 7 8 8 8 5 3 4 3 5 5 5 6 6
18 18 17 15 15 14 13 10 10 9 9 6 6 5 5 7 5 5 5 7 6 9 6 9 1 8 3 8 1 6 5 5 2 3 7 7 5 5 4 2 3 1 7
20 19 18 17 16 15 14 14 11 11 9 8 8 6 4 5 7 6 8 6 6 8 10 6 6 2 2 2 11 5 7 7 6 3 2 3 6 4 3 3 2 2 2
21 20 19 18 17 16 14 13 10 12 11 11 10 6 4 5 6 6 10 10 6 8 5 3 3 7 6 2 6 12 5 8 7 7 3 4 2 3 4 4 2 1 1
20 20 21 20 18 17 14 12 7 4 2 5 5 7 7 5 6 5 6 4 7 5 11 5 4 2 2 2 3 8 5 0 9 9 6 6 5 5 4 4 3 3 1
21 21 21 20 19 19 15 15 12 12 12 11 11 10 8 7 6 8 8 5 8 5 12 7 3 3 2 6 3 6 5 5 3 7 7 6 6 7 4 5 4 4 2
24 23 22 20 19 19 18 12 13 15 10 11 8 11 7 8 7 9 10 8 7 8 5 6 4 4 3 3 2 3 3 0 1 7 8 9 6 5 6 2 3 3 2
25 25 23 22 20 18 18 16 13 11 11 6 12 9 9 9 9 8 10 9 8 7 7 7 6 4 6 4 7 2 3 2 11 2 5 3 9 4 5 4 2 2 2
Wind_Direction
142 138 135 134 130 119 114 113 112 110 103 99 99 99 96 87 86 88 85 86 83 87 90 87 87 84 86 88 90 89 92 95 95 93 90 84 83 81 88 86 84 80 78
139 137 131 131 128 122 118 115 108 103 103 103 101 99 91 84 86 93 89 86 89 88 88 90 90 91 89 92 93 94 97 97 104 99 92 86 79 79 85 91 85 79 72
137 137 133 134 130 122 115 111 109 109 107 102 95 95 94 87 91 95 92 90 91 93 93 92 91 91 91 98 96 97 98 93 100 104 90 82 79 78 79 81 80 80 73
136 139 135 136 132 125 120 122 116 104 110 105 101 93 96 90 85 89 95 97 96 94 92 97 96 95 97 97 97 102 100 89 94 136 101 84 79 82 84 84 79 73 70
141 135 136 133 129 124 120 120 108 105 101 98 97 93 93 91 86 89 92 96 99 98 98 99 97 102 100 99 99 98 98 94 80 83 82 82 83 79 81 79 77 73 79
130 130 138 136 129 124 121 121 113 106 100 96 91 90 90 95 93 92 93 100 100 100 99 97 103 101 101 104 106 103 96 92 79 85 95 71 80 83 80 77 77 76 73
125 127 135 134 130 129 123 121 112 102 103 97 99 98 96 96 100 100 100 101 99 95 93 95 110 115 103 101 106 102 91 75 87 93 88 81 84 84 82 81 79 78 71
128 133 135 136 130 125 120 117 110 108 103 103 99 102 98 96 100 104 104 100 98 92 96 95 100 106 102 102 108 114 103 81 93 92 86 84 89 86 83 81 77 75 72
131 127 134 135 131 124 125 117 114 108 109 107 105 108 104 103 101 108 105 103 96 96 101 102 103 106 108 109 109 107 90 82 95 97 91 85 81 79 89 82 75 76 77
134 129 141 136 137 136 121 116 112 113 116 115 118 121 110 101 103 111 100 102 101 101 103 106 107 107 106 105 117 117 108 119 108 93 85 89 88 85 83 78 77 77 73
116 146 134 147 127 118 123 123 114 129 128 109 113 138 137 107 106 101 111 104 108 108 105 109 109 109 104 103 110 134 149 72 115 90 89 95 85 91 86 80 79 77 73
176 136 142 132 134 147 129 148 135 154 145 135 115 99 125 93 105 113 115 113 112 109 102 108 111 118 129 127 112 119 110 104 92 90 100 94 101 93 88 86 84 72 67
158 152 132 121 136 145 135 147 144 135 126 117 137 100 112 125 127 120 126 121 125 126 122 116 146 145 11 123 88 92 114 126 105 98 105 100 100 97 95 81 83 79 75
151 145 135 144 127 139 134 147 128 131 125 141 118 116 129 120 121 114 128 126 134 126 116 130 94 106 90 69 84 88 96 103 104 106 112 109 97 106 97 78 86 80 63
148 164 139 146 120 131 165 129 134 141 138 123 150 151 124 106 114 106 120 111 121 120 115 104 116 110 113 103 97 99 90 91 87 112 119 113 110 118 109 99 80 72 60
158 165 143 147 152 150 123 115 143 173 125 146 131 123 110 120 109 131 138 138 116 99 94 100 116 125 119 107 91 90 95 91 76 68 131 110 88 94 101 95 73 61 43
163 174 152 158 157 162 140 154 163 148 168 126 136 142 121 118 148 143 124 150 130 100 115 121 106 136 121 116 113 122 108 111 99 109 142 146 148 91 76 72 68 58 36
172 171 163 169 160 165 158 168 168 150 109 138 156 149 135 112 143 214 153 128 130 173 154 154 149 158 132 125 153 139 116 109 118 126 80 36 162 158 114 53 47 47 42
172 169 170 170 166 168 162 177 168 174 167 168 152 152 142 139 153 192 153 111 182 108 148 130 133 161 147 177 148 133 144 142 188 100 108 142 99 53 122 55 48 49 35
168 173 173 175 166 172 165 180 174 170 156 160 160 141 154 152 152 172 150 149 203 162 102 100 223 107 233 101 280 117 170 126 126 132 146 158 115 156 127 93 299 135 39
169 175 176 178 169 177 172 182 175 185 168 185 164 138 163 152 150 176 156 187 250 112 93 122 136 169 159 310 334 180 133 180 172 177 131 113 108 151 113 120 118 123 94
170 179 178 180 173 185 181 198 190 171 186 180 166 149 152 165 155 186 175 184 225 127 133 176 159 250 148 49 328 331 185 162 119 97 119 159 102 130 135 148 127 163 132
169 182 180 183 178 188 192 196 202 232 246 159 141 170 167 155 177 158 203 177 196 221 160 171 189 19 340 102 339 358 0 340 118 138 162 108 163 145 128 141 150 147 159
166 180 178 183 183 187 195 193 183 203 196 194 204 168 152 169 169 182 181 174 200 245 149 172 206 329 256 155 190 59 26 11 346 126 127 122 153 159 143 176 138 142 185
171 178 175 180 184 186 195 214 188 229 190 191 148 182 143 169 184 183 189 190 219 236 174 218 124 293 224 281 106 134 43 138 211 327 141 142 132 133 140 186 117 117 137
182 179 175 178 186 188 193 206 215 219 261 267 158 176 185 177 183 184 194 195 217 258 153 198 205 236 327 325 4 303 80 11 286 235 94 152 125 141 137 127 147 90 50
Height
821 824 825 827 830 831 832 833 834 834 834 835 836 836 836 836 836 837 837 838 838 838 838 839 840 841 841 842 842 842 842 842 842 843 844 845 845 845 846 847 846 847 846
819 824 827 829 831 833 834 835 835 836 837 838 838 838 838 838 838 839 840 839 839 840 841 842 843 843 844 845 846 846 846 845 844 845 846 848 849 849 848 848 849 849 849
818 824 828 831 833 835 835 837 839 839 840 840 840 840 840 840 840 841 841 842 842 843 844 845 846 847 848 848 849 848 848 848 848 849 848 852 853 852 852 852 852 852 852
818 824 830 833 835 837 838 840 841 841 842 843 842 843 842 843 842 842 843 844 845 845 847 847 848 849 850 851 850 851 851 850 849 850 851 853 856 856 855 855 856 856 855
818 824 831 834 837 839 840 842 842 844 843 844 844 845 845 845 845 845 846 846 847 847 848 849 851 851 852 853 854 854 853 852 852 852 855 856 858 859 858 859 859 859 858
820 826 832 835 839 841 842 843 845 845 846 846 846 846 847 847 847 848 848 849 850 850 850 852 854 855 855 856 856 856 855 854 857 857 859 860 861 861 861 862 862 861 861
822 829 835 837 840 842 845 846 846 847 848 849 849 849 850 850 850 851 851 851 852 853 853 854 856 858 858 858 858 858 856 858 858 860 861 864 864 864 864 864 865 864 864
821 829 836 839 842 844 846 847 849 849 850 851 851 852 852 852 853 853 854 854 855 856 856 857 858 859 860 860 861 860 859 860 861 863 865 867 866 867 867 867 867 867 867
823 830 838 841 844 846 847 849 850 851 852 853 854 854 854 854 855 856 857 858 857 858 859 860 861 862 863 863 863 863 861 862 863 866 867 869 869 869 870 869 869 870 869
824 831 834 841 844 846 850 851 852 853 854 855 855 855 853 855 857 859 859 860 861 862 862 862 863 863 864 864 864 864 863 862 865 867 870 872 872 872 871 871 871 872 871
826 828 834 838 843 848 851 853 854 854 855 855 856 856 856 856 859 862 862 863 865 865 865 865 864 865 865 866 866 865 863 863 864 867 873 873 874 873 873 873 873 873 873
829 830 833 839 844 847 849 853 855 855 855 857 857 857 859 859 861 863 865 865 866 866 867 866 865 866 865 865 866 865 865 867 866 871 874 874 875 875 875 875 875 874 874
826 829 835 841 845 848 850 850 851 854 857 860 860 860 860 861 862 864 865 867 867 867 867 866 866 867 865 865 866 868 868 867 868 873 875 875 876 876 875 875 875 876 875
826 832 836 843 846 849 850 850 853 854 857 859 862 862 862 862 863 863 865 867 867 867 867 865 868 870 870 868 868 869 868 867 869 874 876 877 877 876 876 875 875 876 876
830 835 838 844 848 851 852 852 855 855 858 861 862 863 864 865 866 866 866 867 868 868 868 868 869 871 870 871 870 871 872 871 871 873 877 877 877 877 877 876 876 876 876
832 835 840 846 852 854 854 856 856 859 858 861 863 865 864 866 867 869 868 868 869 870 871 871 871 872 872 872 874 873 874 874 874 873 874 875 876 876 877 877 877 877 876
834 838 842 847 852 855 857 859 859 860 860 861 864 865 866 867 868 869 869 870 870 872 873 873 872 872 873 873 874 875 875 876 876 876 874 875 875 876 876 877 877 876 876
833 839 843 845 850 855 858 859 860 861 861 863 864 866 867 868 869 869 869 869 871 872 872 873 873 873 873 875 875 874 875 876 877 877 876 875 875 876 876 877 877 877 876
833 839 843 845 850 855 858 860 860 862 864 864 865 865 868 869 870 869 870 871 871 872 872 872 874 874 873 873 872 875 874 874 874 875 877 876 877 876 877 877 877 877 876
833 839 843 846 850 855 858 860 860 861 863 865 866 867 868 868 870 871 870 873 871 872 871 874 875 875 874 874 872 873 873 873 873 873 874 874 877 877 876 878 876 876 877
831 838 842 846 850 855 857 858 858 861 862 864 866 867 868 869 870 871 872 873 871 871 873 876 876 876 875 874 873 870 871 872 873 872 871 872 875 875 876 877 876 877 876
828 836 841 845 850 854 856 856 856 859 860 861 864 866 867 869 872 872 872 873 872 873 877 877 877 876 875 875 874 870 866 868 868 869 872 873 874 874 875 876 877 877 877
825 834 840 845 849 853 854 857 859 858 859 861 862 864 867 869 871 872 873 873 873 874 876 878 876 876 876 877 875 873 870 867 866 870 872 872 875 874 874 876 876 877 878
823 832 837 843 847 851 854 855 857 860 858 859 861 862 866 869 870 872 874 875 875 873 873 877 877 877 876 875 874 873 873 872 872 869 871 873 874 873 875 874 875 876 877
819 828 834 840 845 848 852 853 857 856 854 857 860 862 865 869 870 871 873 875 876 874 875 876 878 877 876 874 873 873 874 871 870 868 867 870 872 873 874 873 874 874 876
815 823 830 837 842 846 850 853 855 856 856 856 859 862 864 866 868 870 872 874 875 874 875 878 880 880 878 877 876 874 875 877 871 866 868 867 869 873 873 874 874 874 875